Regional Weather Roundup
Issued by NWS

Home | Current Version | Previous Version | Text Only | Print | Product List | Glossary Off
Versions: 1 2 3 4 5 6 7 8 9 10 11 12 13 14 15 16 17 18 19 20 21 22 23 24 25 26 27 28 29 30 31 32 33 34 35 36 37 38 39 40 41 42 43 44 45 46 47 48 49 50

000
ASUS45 KCYS 302010
RWRWY

WYOMING REGIONAL WEATHER ROUNDUP
NATIONAL WEATHER SERVICE CHEYENNE WY
200 PM MDT WED JUL 30 2014

NOTE:  "FAIR" INDICATES FEW OR NO CLOUDS BELOW 12,000 FEET
WITH NO SIGNIFICANT WEATHER AND/OR OBSTRUCTIONS TO VISIBILITY.

WYZ001-302100-
YELLOWSTONE NATIONAL PARK

CITY           SKY/WX    TMP DP  RH WIND       PRES   REMARKS
LK YELLOWSTONE   N/A     65  29  25 CALM      30.48S
W YELLOWSTONE  NOT AVBL

$$
WYZ002>013-054>058-071-098>099-302100-
NORTHERN WYOMING

CITY           SKY/WX    TMP DP  RH WIND       PRES   REMARKS
JACKSON        NOT AVBL
CODY           NOT AVBL
GREYBULL       MOSUNNY   82  44  26 VRB3      30.22F
WORLAND        MOSUNNY   78  40  25 CALM      30.24F
SHERIDAN       MOSUNNY   86  39  19 VRB3      30.24F
BUFFALO        PTSUNNY   81  37  20 N8G20     30.30F
GILLETTE       SUNNY     80  40  23 NE9       30.24F
HULETT         FAIR      79  37  22 MISG      30.25
NEWCASTLE      FAIR      79  41  25 MISG      30.24

$$
WYZ014>020-022>026-101>103-302100-
CENTRAL WYOMING

CITY           SKY/WX    TMP DP  RH WIND       PRES   REMARKS
BIG PINEY      RAIN      54  49  83 NW12      30.45S
PINEDALE       CLOUDY    57  45  62 W7        30.45R
DUBOIS         FAIR      64  36  34 E10       30.42F
LANDER         CLOUDY    70  46  42 CALM      30.34F
RIVERTON       PTSUNNY   73  43  33 N7        30.34F
CASPER         MOSUNNY   75  42  30 E10       30.30F
DOUGLAS        PTSUNNY   76  47  35 CALM      30.30F

$$
WYZ021-027>030-104>119-302100-
SOUTHERN WYOMING

CITY           SKY/WX    TMP DP  RH WIND       PRES   REMARKS
EVANSTON       CLOUDY    61  54  77 E16G24    30.39S
KEMMERER       CLOUDY    59  54  82 NE16      30.43S
FORT BRIDGER   CLOUDY    59  58  95 NE14      30.43S
ROCK SPRINGS   LGT RAIN  61  52  72 NE13      30.38R
DIXON          CLOUDY    65  54  66 E10       30.33R
RAWLINS        CLOUDY    64  48  56 NE18      30.37S
SARATOGA       CLOUDY    63  52  67 NE9       30.37S
LARAMIE        LGT RAIN  56  51  84 SE6       30.40S
CHEYENNE       CLOUDY    59  54  83 SE5       30.38S
TORRINGTON     CLOUDY    73  55  53 W6        30.26F
PINE BLUFFS    MOCLDY    61  55  82 S9        30.35S

$$


USA.gov is the U.S. government's official web portal to all federal, state and local government web resources and services.